^^
Mint Hill Weather Station Historical Data
 
Daily Summary for March 31, 2015 Units:  English    Metric   Both
« Previous Day
Next Day »
Daily Weekly Monthly Yearly Custom
  Current: High: Low: Average:
Temperature: 76.8 °F 77.1 °F 37.5 °F 54.1 °F
Dew Point: 37.3 °F 42.3 °F 34.6 °F 37.8 °F
Humidity: 24% 93% 24% 61%
Wind Speed: 8.5mph 10.9mph 0.0mph 2.5mph
Wind Gust: 15.0mph 23.0mph - -
WindSSW - - SW
Pressure: 29.80 in 30.04 in 29.80 in -
Precipitation: 0.00 in      
Historical Graphs
 
 
Tabular Data for March 31, 2015
Time Temperature Dew Point Pressure Wind Wind Speed Wind Gust Humidity Rainfall Rate (Hourly) solar Conditions
00:00 49.6 °F 39.8 °F 30.03 in NNW 0.1 mph 1.1 mph 69% 0.00 in 0.0 W/m2 RA
00:05 49.6 °F 39.1 °F 30.03 in Calm     67% 0.00 in 0.0 W/m2 RA
00:11 49.5 °F 39.0 °F 30.03 in Calm     67% 0.00 in 0.0 W/m2 CLR
00:16 49.3 °F 39.2 °F 30.02 in NNW 0.2 mph 1.1 mph 68% 0.00 in 0.0 W/m2 CLR
00:21 48.7 °F 40.4 °F 30.02 in Calm     73% 0.00 in 0.0 W/m2 CLR
00:26 48.4 °F 40.1 °F 30.02 in Calm     73% 0.00 in 0.0 W/m2 CLR
00:31 47.9 °F 40.4 °F 30.02 in NNW 0.3 mph 1.1 mph 75% 0.00 in 0.0 W/m2 CLR
00:36 47.7 °F 39.8 °F 30.02 in Calm     74% 0.00 in 0.0 W/m2 CLR
00:41 47.6 °F 40.1 °F 30.02 in Calm     75% 0.00 in 0.0 W/m2 CLR
00:46 47.6 °F 40.1 °F 30.02 in Calm     75% 0.00 in 0.0 W/m2 CLR
00:51 47.5 °F 40.0 °F 30.02 in Calm     75% 0.00 in 0.0 W/m2 CLR
00:56 47.3 °F 39.4 °F 30.03 in Calm     74% 0.00 in 0.0 W/m2 CLR
01:01 47.1 °F 39.6 °F 30.02 in Calm     75% 0.00 in 0.0 W/m2 CLR
01:06 46.9 °F 39.4 °F 30.03 in Calm     75% 0.00 in 0.0 W/m2 CLR
01:11 46.7 °F 39.2 °F 30.02 in Calm     75% 0.00 in 0.0 W/m2 CLR
01:16 46.3 °F 39.1 °F 30.03 in Calm     76% 0.00 in 0.0 W/m2 CLR
01:21 46.2 °F 39.4 °F 30.03 in Calm     77% 0.00 in 0.0 W/m2 CLR
01:26 46.0 °F 38.9 °F 30.02 in Calm     76% 0.00 in 0.0 W/m2 CLR
01:31 45.9 °F 38.8 °F 30.03 in Calm     76% 0.00 in 0.0 W/m2 CLR
01:36 45.8 °F 38.7 °F 30.03 in Calm     76% 0.00 in 0.0 W/m2 CLR
01:41 45.6 °F 38.1 °F 30.02 in Calm     75% 0.00 in 0.0 W/m2 CLR
01:46 45.5 °F 38.0 °F 30.03 in Calm     75% 0.00 in 0.0 W/m2 CLR
01:51 45.3 °F 38.5 °F 30.03 in NNW 1.3 mph 2.3 mph 77% 0.00 in 0.0 W/m2 CLR
01:56 45.1 °F 38.0 °F 30.03 in Calm     76% 0.00 in 0.0 W/m2 CLR
02:01 45.0 °F 37.9 °F 30.03 in Calm     76% 0.00 in 0.0 W/m2 CLR
02:06 44.8 °F 38.0 °F 30.03 in Calm     77% 0.00 in 0.0 W/m2 CLR
02:11 44.6 °F 38.2 °F 30.03 in Calm     78% 0.00 in 0.0 W/m2 CLR
02:16 44.5 °F 38.1 °F 30.03 in Calm     78% 0.00 in 0.0 W/m2 CLR
02:21 44.0 °F 38.2 °F 30.02 in Calm     80% 0.00 in 0.0 W/m2 CLR
02:26 43.5 °F 38.1 °F 30.02 in Calm     81% 0.00 in 0.0 W/m2 CLR
02:31 43.1 °F 38.0 °F 30.02 in Calm     82% 0.00 in 0.0 W/m2 CLR
02:36 42.8 °F 37.7 °F 30.02 in Calm     82% 0.00 in 0.0 W/m2 CLR
02:41 42.8 °F 37.7 °F 30.02 in Calm     82% 0.00 in 0.0 W/m2 CLR
02:46 42.8 °F 37.4 °F 30.02 in Calm     81% 0.00 in 0.0 W/m2 CLR
02:51 42.8 °F 37.4 °F 30.02 in Calm     81% 0.00 in 0.0 W/m2 CLR
02:56 42.7 °F 37.6 °F 30.02 in Calm     82% 0.00 in 0.0 W/m2 CLR
03:01 42.7 °F 37.3 °F 30.02 in Calm     81% 0.00 in 0.0 W/m2 CLR
03:06 42.6 °F 37.5 °F 30.02 in Calm     82% 0.00 in 0.0 W/m2 CLR
03:11 42.5 °F 37.4 °F 30.02 in Calm     82% 0.00 in 0.0 W/m2 CLR
03:16 42.3 °F 37.5 °F 30.02 in Calm     83% 0.00 in 0.0 W/m2 CLR
03:21 42.2 °F 37.4 °F 30.02 in Calm     83% 0.00 in 0.0 W/m2 CLR
03:26 42.0 °F 37.2 °F 30.02 in Calm     83% 0.00 in 0.0 W/m2 CLR
03:31 42.0 °F 37.2 °F 30.02 in Calm     83% 0.00 in 0.0 W/m2 CLR
03:36 41.8 °F 37.3 °F 30.02 in Calm     84% 0.00 in 0.0 W/m2 CLR
03:41 41.6 °F 37.1 °F 30.01 in Calm     84% 0.00 in 0.0 W/m2 CLR
03:46 41.5 °F 37.0 °F 30.01 in Calm     84% 0.00 in 0.0 W/m2 CLR
03:51 41.4 °F 36.6 °F 30.01 in Calm     83% 0.00 in 0.0 W/m2 CLR
03:56 41.3 °F 36.5 °F 30.01 in Calm     83% 0.00 in 0.0 W/m2 CLR
04:01 41.3 °F 36.5 °F 30.01 in Calm     83% 0.00 in 0.0 W/m2 CLR
04:06 41.1 °F 36.6 °F 30.01 in Calm     84% 0.00 in 0.0 W/m2 CLR
04:11 41.0 °F 36.8 °F 30.01 in Calm     85% 0.00 in 0.0 W/m2 CLR
04:16 40.8 °F 36.6 °F 30.01 in Calm     85% 0.00 in 0.0 W/m2 CLR
04:21 40.7 °F 36.5 °F 30.01 in Calm     85% 0.00 in 0.0 W/m2 CLR
04:26 40.6 °F 36.4 °F 30.01 in Calm     85% 0.00 in 0.0 W/m2 CLR
04:31 40.3 °F 36.4 °F 30.01 in Calm     86% 0.00 in 0.0 W/m2 CLR
04:36 40.1 °F 36.2 °F 30.01 in Calm     86% 0.00 in 0.0 W/m2 CLR
04:41 40.0 °F 36.2 °F 30.01 in Calm     86% 0.00 in 0.0 W/m2 CLR
04:46 40.0 °F 36.2 °F 30.01 in Calm     86% 0.00 in 0.0 W/m2 CLR
04:51 40.0 °F 36.2 °F 30.01 in Calm     86% 0.00 in 0.0 W/m2 CLR
04:56 39.9 °F 36.1 °F 30.01 in Calm     86% 0.00 in 0.0 W/m2 CLR
05:01 39.8 °F 36.0 °F 30.01 in Calm     86% 0.00 in 0.0 W/m2 CLR
05:06 39.7 °F 36.1 °F 30.02 in Calm     87% 0.00 in 0.0 W/m2 CLR
05:11 39.5 °F 36.0 °F 30.02 in Calm     87% 0.00 in 0.0 W/m2 CLR
05:16 39.5 °F 36.0 °F 30.02 in Calm     87% 0.00 in 0.0 W/m2 CLR
05:21 39.4 °F 35.9 °F 30.01 in Calm     87% 0.00 in 0.0 W/m2 CLR
05:26 39.3 °F 35.8 °F 30.01 in Calm     87% 0.00 in 0.0 W/m2 CLR
05:31 39.2 °F 35.7 °F 30.02 in Calm     87% 0.00 in 0.0 W/m2 CLR
05:36 39.0 °F 35.5 °F 30.02 in Calm     87% 0.00 in 0.0 W/m2 CLR
05:41 38.9 °F 35.4 °F 30.02 in Calm     87% 0.00 in 0.0 W/m2 CLR
05:46 38.9 °F 35.4 °F 30.02 in Calm     87% 0.00 in 0.0 W/m2 CLR
05:52 38.9 °F 35.6 °F 30.02 in Calm     88% 0.00 in 0.0 W/m2 CLR
05:56 38.7 °F 35.5 °F 30.02 in NNW 0.4 mph 1.1 mph 88% 0.00 in 0.0 W/m2 CLR
06:02 38.6 °F 35.4 °F 30.02 in Calm     88% 0.00 in 0.0 W/m2 CLR
06:07 38.5 °F 35.3 °F 30.02 in Calm     88% 0.00 in 0.0 W/m2 CLR
06:12 38.4 °F 35.2 °F 30.02 in Calm     88% 0.00 in 0.0 W/m2 CLR
06:17 38.4 °F 35.2 °F 30.02 in Calm     88% 0.00 in 0.0 W/m2 CLR
06:22 38.4 °F 35.4 °F 30.02 in Calm     89% 0.00 in 0.0 W/m2 CLR
06:27 38.3 °F 35.1 °F 30.03 in Calm     88% 0.00 in 0.0 W/m2 CLR
06:32 38.2 °F 35.0 °F 30.03 in Calm     88% 0.00 in 0.0 W/m2 CLR
06:37 38.1 °F 34.9 °F 30.02 in Calm     88% 0.00 in 0.0 W/m2 CLR
06:42 38.0 °F 34.8 °F 30.02 in NNW 1.0 mph 1.1 mph 88% 0.00 in 0.0 W/m2 CLR
06:47 37.9 °F 34.7 °F 30.02 in NNW 1.1 mph 2.3 mph 88% 0.00 in 0.0 W/m2 CLR
06:52 37.9 °F 34.7 °F 30.02 in Calm     88% 0.00 in 0.0 W/m2 CLR
06:57 37.8 °F 34.6 °F 30.02 in Calm     88% 0.00 in 0.0 W/m2 CLR
07:02 37.9 °F 34.9 °F 30.02 in Calm     89% 0.00 in 0.0 W/m2 CLR
07:07 37.8 °F 34.8 °F 30.02 in Calm     89% 0.00 in 0.0 W/m2 CLR
07:12 37.7 °F 35.0 °F 30.02 in Calm     90% 0.00 in 0.0 W/m2 CLR
07:17 37.7 °F 35.0 °F 30.03 in Calm   1.1 mph 90% 0.00 in 6.0 W/m2 CLR
07:22 37.6 °F 34.9 °F 30.03 in Calm     90% 0.00 in 8.4 W/m2 CLR
07:27 37.5 °F 34.8 °F 30.03 in Calm     90% 0.00 in 13.2 W/m2 CLR
07:32 37.6 °F 34.9 °F 30.03 in Calm     90% 0.00 in 13.2 W/m2 CLR
07:37 37.5 °F 34.8 °F 30.04 in Calm     90% 0.00 in 13.2 W/m2 CLR
07:42 37.6 °F 34.9 °F 30.04 in Calm     90% 0.00 in 16.8 W/m2 CLR
07:47 37.5 °F 34.8 °F 30.04 in Calm     90% 0.00 in 21.6 W/m2 CLR
07:52 37.5 °F 34.8 °F 30.04 in Calm     90% 0.00 in 25.2 W/m2 CLR
07:57 37.7 °F 35.0 °F 30.04 in Calm     90% 0.00 in 25.2 W/m2 CLR
08:02 37.8 °F 35.1 °F 30.04 in Calm     90% 0.00 in 33.6 W/m2 CLR
08:07 37.9 °F 35.2 °F 30.03 in Calm     90% 0.00 in 31.2 W/m2 CLR
08:12 37.9 °F 35.2 °F 30.03 in Calm     90% 0.00 in 36.0 W/m2 CLR
08:17 37.9 °F 35.5 °F 30.03 in Calm     91% 0.00 in 82.8 W/m2 CLR
08:22 38.6 °F 36.5 °F 30.03 in Calm     92% 0.00 in 78.0 W/m2 CLR
08:27 39.3 °F 37.2 °F 30.03 in South 0.5 mph 2.3 mph 92% 0.00 in 152.4 W/m2 CLR
08:32 39.8 °F 37.7 °F 30.03 in Calm   1.1 mph 92% 0.00 in 86.4 W/m2 CLR
08:37 40.4 °F 38.5 °F 30.03 in Calm     93% 0.00 in 103.2 W/m2 CLR
08:42 41.1 °F 39.2 °F 30.03 in South 0.4 mph 1.1 mph 93% 0.00 in 228.0 W/m2 CLR
08:47 41.9 °F 40.0 °F 30.04 in South 0.7 mph 1.1 mph 93% 0.00 in 223.2 W/m2 CLR
08:52 42.9 °F 41.0 °F 30.04 in SSW 1.1 mph 3.5 mph 93% 0.00 in 219.6 W/m2 CLR
08:57 43.8 °F 41.3 °F 30.04 in SW 0.2 mph 2.3 mph 91% 0.00 in 301.2 W/m2 CLR
09:02 44.8 °F 42.3 °F 30.04 in SW 1.4 mph 2.3 mph 91% 0.00 in 272.4 W/m2 CLR
09:07 46.0 °F 41.7 °F 30.04 in South 1.1 mph 4.6 mph 85% 0.00 in 208.8 W/m2 CLR
09:12 47.9 °F 42.0 °F 30.04 in SSW 1.4 mph 2.3 mph 80% 0.00 in 195.6 W/m2 CLR
09:17 50.0 °F 41.7 °F 30.04 in South 2.0 mph 3.5 mph 73% 0.00 in 139.2 W/m2 CLR
09:22 52.3 °F 41.7 °F 30.04 in SE 0.9 mph 3.5 mph 67% 0.00 in 342.0 W/m2 CLR
09:27 54.1 °F 41.4 °F 30.03 in SSE 2.6 mph 3.5 mph 62% 0.00 in 381.6 W/m2 CLR
09:32 55.4 °F 41.7 °F 30.03 in SSW 2.2 mph 4.6 mph 60% 0.00 in 350.4 W/m2 CLR
09:37 56.4 °F 40.9 °F 30.03 in SSE 4.5 mph 5.0 mph 56% 0.00 in 520.8 W/m2 CLR
09:42 57.3 °F 41.3 °F 30.03 in SSE 2.1 mph 3.5 mph 55% 0.00 in 540.0 W/m2 CLR
09:47 57.9 °F 40.4 °F 30.03 in SSW 4.3 mph 6.9 mph 52% 0.00 in 562.8 W/m2 CLR
09:52 58.4 °F 41.3 °F 30.03 in SSE 2.8 mph 5.8 mph 53% 0.00 in 584.4 W/m2 CLR
09:57 59.1 °F 41.5 °F 30.03 in SSW 2.8 mph 5.8 mph 52% 0.00 in 559.2 W/m2 CLR
10:02 59.6 °F 41.4 °F 30.02 in South 3.3 mph 5.0 mph 51% 0.00 in 622.8 W/m2 CLR
10:07 60.4 °F 42.2 °F 30.02 in South 2.0 mph 3.5 mph 51% 0.00 in 639.6 W/m2 CLR
10:12 61.3 °F 41.4 °F 30.03 in South 2.4 mph 5.8 mph 48% 0.00 in 656.4 W/m2 CLR
10:17 62.2 °F 41.2 °F 30.03 in SSW 3.6 mph 5.8 mph 46% 0.00 in 670.8 W/m2 CLR
10:22 63.0 °F 40.1 °F 30.02 in WSW 2.4 mph 5.8 mph 43% 0.00 in 690.0 W/m2 CLR
10:27 63.4 °F 39.9 °F 30.02 in SSW 5.0 mph 5.0 mph 42% 0.00 in 709.2 W/m2 CLR
10:32 63.8 °F 39.6 °F 30.02 in SW 3.7 mph 4.6 mph 41% 0.00 in 723.6 W/m2 CLR
10:37 64.5 °F 39.6 °F 30.02 in SSW 5.1 mph 6.9 mph 40% 0.00 in 740.4 W/m2 CLR
10:42 65.1 °F 39.5 °F 30.02 in SSW 3.2 mph 4.6 mph 39% 0.00 in 754.8 W/m2 CLR
10:47 65.1 °F 38.2 °F 30.02 in WNW 5.7 mph 6.9 mph 37% 0.00 in 771.6 W/m2 CLR
10:52 65.0 °F 39.4 °F 30.02 in SSW 4.3 mph 6.9 mph 39% 0.00 in 712.8 W/m2 CLR
10:57 65.5 °F 38.5 °F 30.02 in SW 3.2 mph 5.8 mph 37% 0.00 in 128.4 W/m2 CLR
11:02 65.6 °F 37.9 °F 30.02 in South 7.0 mph 11.5 mph 36% 0.00 in 824.4 W/m2 CLR
11:07 65.6 °F 38.6 °F 30.01 in WSW 2.6 mph 8.1 mph 37% 0.00 in 841.2 W/m2 CLR
11:12 65.6 °F 37.9 °F 30.01 in SSE 3.6 mph 8.1 mph 36% 0.00 in 860.4 W/m2 CLR
11:17 66.1 °F 38.4 °F 30.01 in WSW 5.9 mph 6.9 mph 36% 0.00 in 871.2 W/m2 CLR
11:22 66.5 °F 38.7 °F 30.01 in SSW 3.5 mph 7.0 mph 36% 0.00 in 884.4 W/m2 CLR
11:27 66.5 °F 38.0 °F 30.00 in SW 3.5 mph 5.8 mph 35% 0.00 in 896.4 W/m2 CLR
11:32 66.6 °F 38.1 °F 30.00 in SW 3.6 mph 6.9 mph 35% 0.00 in 918.0 W/m2 CLR
11:37 66.6 °F 38.1 °F 30.00 in West 4.7 mph 8.1 mph 35% 0.00 in 927.6 W/m2 CLR
11:42 67.4 °F 38.8 °F 30.00 in SSW 3.4 mph 4.6 mph 35% 0.00 in 938.4 W/m2 CLR
11:47 67.4 °F 38.8 °F 29.99 in WSW 3.3 mph 9.2 mph 35% 0.00 in 951.6 W/m2 CLR
11:52 67.9 °F 39.2 °F 29.99 in South 3.1 mph 5.8 mph 35% 0.00 in 963.6 W/m2 CLR
11:57 68.2 °F 37.2 °F 29.99 in SE 7.9 mph 12.7 mph 32% 0.00 in 976.8 W/m2 CLR
12:02 68.3 °F 37.3 °F 29.99 in SW 4.4 mph 6.9 mph 32% 0.00 in 979.2 W/m2 CLR
12:08 69.1 °F 38.8 °F 29.98 in South 4.4 mph 9.0 mph 33% 0.00 in 993.6 W/m2 CLR
12:13 69.7 °F 37.7 °F 29.98 in SW 6.0 mph 9.2 mph 31% 0.00 in 993.6 W/m2 CLR
12:18 69.8 °F 37.8 °F 29.98 in SW 4.4 mph 9.2 mph 31% 0.00 in 1010.4 W/m2 CLR
12:23 70.3 °F 39.0 °F 29.98 in WSW 5.4 mph 11.5 mph 32% 0.00 in 1023.6 W/m2 CLR
12:28 69.3 °F 36.5 °F 29.97 in South 7.2 mph 11.5 mph 30% 0.00 in 1027.2 W/m2 CLR
12:33 69.5 °F 39.1 °F 29.97 in West 3.9 mph 8.1 mph 33% 0.00 in 1038.0 W/m2 CLR
12:38 69.7 °F 37.7 °F 29.96 in SW 1.9 mph 3.5 mph 31% 0.00 in 1038.0 W/m2 CLR
12:43 70.5 °F 39.2 °F 29.96 in NW 4.2 mph 9.2 mph 32% 0.00 in 1044.0 W/m2 CLR
12:48 70.8 °F 38.7 °F 29.96 in SE 9.7 mph 13.8 mph 31% 0.00 in 1052.4 W/m2 CLR
12:53 70.3 °F 38.2 °F 29.96 in SW 6.9 mph 12.7 mph 31% 0.00 in 1060.8 W/m2 CLR
12:58 70.3 °F 37.4 °F 29.95 in WNW 6.6 mph 11.5 mph 30% 0.00 in 1060.8 W/m2 CLR
13:03 70.4 °F 38.3 °F 29.95 in West 5.4 mph 11.5 mph 31% 0.00 in 1065.6 W/m2 CLR
13:08 70.4 °F 37.5 °F 29.95 in WSW 7.7 mph 13.8 mph 30% 0.00 in 1066.8 W/m2 CLR
13:13 70.6 °F 37.6 °F 29.94 in WNW 7.1 mph 11.5 mph 30% 0.00 in 1066.8 W/m2 CLR
13:18 70.6 °F 36.8 °F 29.94 in WSW 4.8 mph 11.5 mph 29% 0.00 in 1069.2 W/m2 CLR
13:23 71.0 °F 38.0 °F 29.94 in South 7.1 mph 10.4 mph 30% 0.00 in 1077.6 W/m2 CLR
13:28 71.1 °F 37.2 °F 29.94 in SSW 9.5 mph 15.0 mph 29% 0.00 in 1074.0 W/m2 CLR
13:33 71.3 °F 38.2 °F 29.93 in SW 1.5 mph 4.0 mph 30% 0.00 in 1074.0 W/m2 CLR
13:38 71.3 °F 36.5 °F 29.93 in West 5.6 mph 11.5 mph 28% 0.00 in 1075.2 W/m2 CLR
13:43 71.9 °F 37.0 °F 29.92 in SSW 6.1 mph 12.7 mph 28% 0.00 in 1074.0 W/m2 CLR
13:48 71.8 °F 37.8 °F 29.92 in West 6.9 mph 12.7 mph 29% 0.00 in 1071.6 W/m2 CLR
13:53 72.2 °F 39.0 °F 29.92 in West 9.3 mph 12.7 mph 30% 0.00 in 1063.2 W/m2 CLR
13:58 72.3 °F 38.2 °F 29.91 in West 10.7 mph 17.3 mph 29% 0.00 in 1066.8 W/m2 CLR
14:03 72.5 °F 38.4 °F 29.91 in SSW 6.3 mph 10.4 mph 29% 0.00 in 1058.4 W/m2 CLR
14:08 72.3 °F 38.2 °F 29.90 in WSW 4.9 mph 10.0 mph 29% 0.00 in 1057.2 W/m2 CLR
14:13 73.0 °F 38.9 °F 29.90 in WSW 7.5 mph 12.7 mph 29% 0.00 in 1052.4 W/m2 CLR
14:18 73.3 °F 40.0 °F 29.89 in SSW 4.9 mph 11.5 mph 30% 0.00 in 1046.4 W/m2 CLR
14:23 73.5 °F 38.4 °F 29.89 in SW 9.1 mph 16.1 mph 28% 0.00 in 1044.0 W/m2 CLR
14:28 73.5 °F 38.4 °F 29.89 in WSW 5.3 mph 13.8 mph 28% 0.00 in 1033.2 W/m2 CLR
14:33 73.8 °F 38.6 °F 29.88 in SSW 5.3 mph 9.0 mph 28% 0.00 in 1029.6 W/m2 CLR
14:38 73.7 °F 37.6 °F 29.88 in West 7.2 mph 11.0 mph 27% 0.00 in 1021.2 W/m2 CLR
14:43 74.2 °F 36.1 °F 29.87 in WSW 7.9 mph 13.8 mph 25% 0.00 in 1012.8 W/m2 CLR
14:48 74.2 °F 38.1 °F 29.87 in SSE 3.9 mph 5.8 mph 27% 0.00 in 1004.4 W/m2 CLR
14:53 74.6 °F 37.4 °F 29.87 in WSW 7.1 mph 11.5 mph 26% 0.00 in 999.6 W/m2 CLR
14:58 74.4 °F 36.3 °F 29.87 in SW 5.0 mph 13.8 mph 25% 0.00 in 991.2 W/m2 CLR
15:03 74.8 °F 36.6 °F 29.86 in WNW 4.9 mph 10.4 mph 25% 0.00 in 980.4 W/m2 CLR
15:08 75.5 °F 38.2 °F 29.86 in West 5.2 mph 9.2 mph 26% 0.00 in 970.8 W/m2 CLR
15:13 75.1 °F 37.9 °F 29.86 in West 5.7 mph 10.4 mph 26% 0.00 in 960.0 W/m2 CLR
15:18 74.9 °F 37.7 °F 29.85 in South 9.3 mph 16.0 mph 26% 0.00 in 951.6 W/m2 CLR
15:23 75.1 °F 37.9 °F 29.85 in WNW 10.9 mph 19.6 mph 26% 0.00 in 943.2 W/m2 CLR
15:28 75.4 °F 37.1 °F 29.84 in WSW 10.3 mph 13.8 mph 25% 0.00 in 927.6 W/m2 CLR
15:33 75.4 °F 37.1 °F 29.84 in West 8.6 mph 11.5 mph 25% 0.00 in 910.8 W/m2 CLR
15:38 75.8 °F 39.4 °F 29.84 in SW 7.4 mph 11.5 mph 27% 0.00 in 901.2 W/m2 CLR
15:43 75.9 °F 38.5 °F 29.84 in West 7.7 mph 11.5 mph 26% 0.00 in 885.6 W/m2 CLR
15:48 75.3 °F 38.0 °F 29.83 in SW 4.8 mph 17.3 mph 26% 0.00 in 877.2 W/m2 CLR
15:53 75.4 °F 38.1 °F 29.83 in NW 9.3 mph 18.4 mph 26% 0.00 in 862.8 W/m2 CLR
15:58 76.1 °F 37.7 °F 29.83 in West 6.8 mph 11.0 mph 25% 0.00 in 846.0 W/m2 CLR
16:03 76.2 °F 38.8 °F 29.83 in SW 8.4 mph 16.1 mph 26% 0.00 in 835.2 W/m2 CLR
16:08 76.0 °F 37.6 °F 29.82 in WNW 5.0 mph 11.5 mph 25% 0.00 in 818.4 W/m2 CLR
16:13 76.6 °F 38.1 °F 29.82 in West 4.9 mph 11.5 mph 25% 0.00 in 801.6 W/m2 CLR
16:18 76.9 °F 37.3 °F 29.81 in SSW 5.9 mph 10.4 mph 24% 0.00 in 782.4 W/m2 CLR
16:23 76.7 °F 39.2 °F 29.81 in SSW 5.5 mph 15.0 mph 26% 0.00 in 768.0 W/m2 CLR
16:28 76.7 °F 37.2 °F 29.81 in SW 7.4 mph 18.4 mph 24% 0.00 in 748.8 W/m2 CLR
16:33 76.7 °F 40.2 °F 29.80 in WSW 5.4 mph 23.0 mph 27% 0.00 in 732.0 W/m2 CLR
16:38 77.1 °F 38.6 °F 29.80 in SSW 4.3 mph 8.1 mph 25% 0.00 in 715.2 W/m2 CLR
16:43 76.8 °F 37.3 °F 29.80 in SSW 8.5 mph 15.0 mph 24% 0.00 in 696.0 W/m2 CLR
Mint Hill, North Carolina, USA
Compliments of Weather Underground